[[{"header":{"parameterUnit":"m.s-1","parameterCategory":1,"la1":30.2991,"la2":30.254,"lo1":-89.0895,"lo2":-89.0444,"dy":0.0017,"dx":0.0017,"nx":28,"ny":28,"refTime":"2024-06-03T09:00:00:Z","depth":0,"parameterNumber":2,"parameterNumberName":"U-component_of_WINDS"},"data":[0,0,0,0,0,0,0,0,0,0,0,0,0,0,0,0,0,0,0,0,0,0,0,0,0,0,0,0,0,0,0,0,0,0,0,0,0,0,0,0,0,0,0,0,0,0,0,0,0,0,0,0,0,0,0,0,0,0,-1.0125,-1.0124,0,-1.0073,-1.0072,-1.0072,-1.007,-1.007,-1.0071,-1.0071,-1.0017,-1.0015,-1.0013,0,0,0,0,0,0,0,0,0,0,0,0,0,-1.022,-1.0218,-1.0125,-1.0124,-1.0123,-1.0073,-1.0072,-1.0072,-1.0069,-1.007,-1.0071,-1.0072,-1.0017,-1.0015,-1.0013,0,0,0,0,0,0,0,0,0,0,0,0,0,-1.0175,-1.0218,-1.0125,-1.0116,-1.0115,-1.0073,-1.0072,-1.0071,-1.0069,-1.007,-1.0071,-1.0072,-1.0018,-1.0015,-1.0012,-0.9975,0,0,-1.0003,-1.0002,0,0,0,0,0,0,0,0,-1.0177,-1.0171,-1.0118,-1.0117,-1.0115,-1.0079,-1.0086,-1.0039,-1.0069,-1.0087,-1.0071,-1.0072,-1.0037,-1.0032,-1.002,-0.9972,-0.997,-1.0003,-1.0001,-1.0,-0.9999,0,0,0,0,0,0,0,-1.018,-1.0173,-1.0104,-1.0117,-1.0116,-1.0115,-1.0109,-1.0077,-1.0057,-1.0085,-1.0085,-1.0079,-1.0036,-1.0023,-1.0019,-0.9969,-1.0003,-1.0,-0.9998,-0.9997,-0.9887,-0.9886,0,0,0,0,0,0,-1.0185,-1.0176,-1.0106,-1.0103,-1.0149,-1.0112,-1.0106,-1.0089,-1.0057,-1.0053,-1.0078,-1.0079,-1.0028,-1.0023,-1.0017,-0.997,-1.0,-0.9997,-0.9995,-0.9888,-0.9887,-0.9885,0,0,0,0,0,0,-1.0187,-1.0179,-1.0108,-1.0139,-1.013,-1.0109,-1.0091,-1.0088,-1.0075,-1.0052,-1.0048,-1.0069,-1.0028,-1.0021,-0.9985,-0.9968,-0.9995,-0.9993,-0.9889,-0.9887,-0.9886,-0.9876,0,0,0,0,0,0,-1.019,-1.018,-1.0166,-1.0139,-1.0128,-1.0078,-1.009,-1.0086,-1.007,-1.0071,-1.0042,-1.0039,-1.0029,-0.999,-0.9982,-0.9964,-0.999,-0.9891,-0.9888,-0.9886,-0.9878,-0.9875,-0.9872,0,0,0,0,0,-1.0194,-1.0165,-1.0165,-1.0157,-1.0111,-1.0077,-1.007,-1.006,-1.0069,-1.0054,-1.0039,-1.0039,-0.9972,-0.9986,-0.9978,-0.9959,-0.9892,-0.9889,-0.9887,-0.988,-0.9875,-0.9872,0,0,0,0,0,0,-1.0191,-1.0162,-1.0161,-1.0124,-1.0103,-1.0076,-1.0058,-1.0056,-1.0032,-1.0033,-1.0021,-1.0015,-0.9979,-0.9965,-0.9982,-0.992,-0.9932,-0.9928,-0.993,-0.9926,-0.9923,-0.9926,-0.9988,0,0,0,0,0,-1.0186,-1.0161,-1.0137,-1.0106,-1.0095,-1.0078,-1.0063,-1.0057,-1.0035,-1.0026,-1.0008,-0.9986,-0.9959,-0.9942,-0.9917,-0.9877,-0.987,-0.9859,-0.9856,-0.9854,-0.985,-0.9826,-0.9821,-0.9877,-0.9877,-0.9877,0,0,-1.0175,-1.0156,-1.0141,-1.0105,-1.0088,-1.0062,-1.0071,-1.0043,-1.0023,-1.0021,-0.9986,-0.9972,-0.9946,-0.9908,-0.989,-0.9896,-0.9833,-0.985,-0.9849,-0.9846,-0.9823,-0.9818,-0.9813,-0.9876,-0.9876,-0.9876,0,0,-1.0142,-1.0126,-1.0097,-1.008,-1.0054,-1.0043,-1.0036,-1.001,-1.0001,-0.9965,-0.9963,-0.9939,-0.9894,-0.9876,-0.986,-0.982,-0.9818,-0.9812,-0.9794,-0.9771,-0.9767,-0.9763,-0.9747,-0.9742,-0.9808,-0.9808,-0.9808,0,-1.0132,-1.0093,-1.0083,-1.0055,-1.0038,-1.0036,-1.0006,-0.999,-0.9957,-0.9945,-0.9952,-0.9895,-0.9878,-0.9834,-0.9824,-0.9813,-0.9803,-0.9814,-0.9769,-0.9764,-0.976,-0.9745,-0.9739,-0.9807,-0.9807,-0.9807,-0.9808,0,-1.0081,-1.0054,-1.0034,-1.0002,-0.9984,-0.9955,-0.994,-0.9923,-0.9918,-0.9906,-0.9869,-0.9848,-0.9818,-0.9807,-0.9803,-0.9763,-0.9767,-0.9771,-0.9783,-0.9754,-0.974,-0.9734,-0.9806,-0.9806,-0.9807,-0.9807,0,0,-1.0044,-1.0007,-1.0,-0.9985,-0.9956,-0.9934,-0.9906,-0.9876,-0.986,-0.9838,-0.9812,-0.9774,-0.9778,-0.9761,-0.9754,-0.9734,-0.9701,-0.9741,-0.974,-0.9733,-0.9654,-0.965,-0.9643,-0.9701,-0.97,-0.9699,-0.9656,0,-1.0007,-0.9955,-0.9945,-0.99,-0.9875,-0.9871,-0.9846,-0.9825,-0.9813,-0.9789,-0.9775,-0.9748,-0.9755,-0.9745,-0.9725,-0.9709,-0.9685,-0.9713,-0.9676,-0.9675,-0.9681,-0.9636,-0.9631,-0.9592,-0.965,-0.9649,-0.9649,0,-0.9957,-0.9932,-0.9885,-0.9858,-0.9847,-0.9824,-0.9796,-0.9773,-0.9749,-0.9741,-0.9722,-0.9717,-0.9686,-0.97,-0.9656,-0.9675,-0.966,-0.965,-0.9648,-0.9643,-0.9659,-0.9628,-0.9579,-0.9573,-0.964,-0.964,-0.9641,0,-0.9933,-0.9888,-0.9854,-0.9841,-0.981,-0.9794,-0.978,-0.9757,-0.9739,-0.9715,-0.9703,-0.9675,-0.9659,-0.9637,-0.9624,-0.9636,-0.9581,-0.9594,-0.9572,-0.9572,-0.956,-0.956,-0.9506,-0.9552,-0.9552,-0.9552,-0.9552,0,-0.9891,-0.9862,-0.9843,-0.9821,-0.9788,-0.9776,-0.9744,-0.973,-0.9709,-0.9684,-0.968,-0.9657,-0.9642,-0.9617,-0.9607,-0.9571,-0.9564,-0.9556,-0.9554,-0.9556,-0.9557,-0.9544,-0.9546,-0.9551,-0.9551,-0.9551,-0.9552,0,-0.9859,-0.9845,-0.9807,-0.978,-0.9773,-0.9749,-0.9726,-0.9704,-0.9692,-0.9661,-0.9653,-0.9633,-0.9603,-0.9588,-0.9551,-0.9544,-0.9503,-0.9503,-0.9511,-0.9509,-0.9488,-0.9489,-0.9422,-0.9412,-0.9467,-0.9466,-0.9466,0,-0.9833,-0.981,-0.9781,-0.9764,-0.975,-0.9723,-0.9705,-0.9693,-0.9674,-0.9644,-0.9626,-0.9596,-0.957,-0.9522,-0.9504,-0.9474,-0.9473,-0.9451,-0.9468,-0.9471,-0.947,-0.9471,-0.9468,-0.9448,-0.9447,-0.9447,-0.9446,0,-0.9788,-0.9782,-0.9756,-0.9728,-0.9706,-0.9683,-0.9661,-0.9647,-0.9631,-0.961,-0.9579,-0.956,-0.9521,-0.949,-0.9459,-0.9444,-0.9442,-0.9441,-0.9434,-0.9436,-0.9441,-0.9436,-0.9501,-0.9443,-0.9443,-0.9443,-0.9444,-0.9444,-0.9757,-0.9736,-0.9712,-0.9683,-0.9665,-0.9643,-0.9621,-0.9606,-0.958,-0.9548,-0.9542,-0.9508,-0.9484,-0.9443,-0.9426,-0.9399,-0.9404,-0.9395,-0.9392,-0.9389,-0.9387,-0.9446,-0.9394,-0.9394,-0.9394,-0.9394,-0.9394,0,-0.971,-0.9694,-0.9668,-0.9636,-0.9613,-0.9614,-0.9589,-0.9569,-0.954,-0.9517,-0.9492,-0.9456,-0.9426,-0.9405,-0.9374,-0.9356,-0.9355,-0.9349,-0.9349,-0.9345,-0.9386,-0.9394,-0.9351,-0.9351,-0.9351,-0.9351,-0.9351,-0.9351,-0.9683,-0.9647,-0.9638,-0.9593,-0.9577,-0.9544,-0.9529,-0.9509,-0.9491,-0.945,-0.9425,-0.9412,-0.939,-0.9357,-0.9329,-0.9324,-0.9312,-0.9306,-0.9301,-0.9338,-0.9343,-0.9347,-0.9355,-0.9304,-0.9304,-0.9262,-0.9262,-0.9262]},{"header":{"parameterUnit":"m.s-1","parameterCategory":1,"la1":30.2991,"la2":30.254,"lo1":-89.0895,"lo2":-89.0444,"dy":0.0017,"dx":0.0017,"nx":28,"ny":28,"refTime":"2024-06-03T09:00:00:Z","depth":0,"parameterNumber":3,"parameterNumberName":"V-component_of_WINDS"},"data":[0,0,0,0,0,0,0,0,0,0,0,0,0,0,0,0,0,0,0,0,0,0,0,0,0,0,0,0,0,0,0,0,0,0,0,0,0,0,0,0,0,0,0,0,0,0,0,0,0,0,0,0,0,0,0,0,0,0,3.8984,3.8985,0,3.9068,3.9069,3.907,3.9064,3.9062,3.9061,3.906,3.9142,3.9145,3.9149,0,0,0,0,0,0,0,0,0,0,0,0,0,3.8814,3.8817,3.8984,3.8985,3.8986,3.9068,3.9069,3.907,3.9064,3.9062,3.9061,3.906,3.9141,3.9145,3.9149,0,0,0,0,0,0,0,0,0,0,0,0,0,3.8892,3.8818,3.8984,3.8993,3.8995,3.9067,3.9069,3.907,3.9064,3.9062,3.9061,3.9059,3.914,3.9144,3.9149,3.9217,0,0,3.9165,3.9167,0,0,0,0,0,0,0,0,3.8887,3.8898,3.8991,3.8992,3.8994,3.9054,3.9039,3.9119,3.9065,3.9038,3.906,3.9058,3.9114,3.9121,3.914,3.9221,3.9225,3.9165,3.9168,3.917,3.9172,0,0,0,0,0,0,0,3.8882,3.8894,3.9017,3.8992,3.8994,3.8991,3.9,3.9054,3.9085,3.904,3.904,3.905,3.9114,3.9136,3.9142,3.9226,3.9165,3.9169,3.9173,3.9174,3.9366,3.9368,0,0,0,0,0,0,3.8875,3.889,3.9014,3.9019,3.8935,3.8996,3.9006,3.9036,3.9084,3.909,3.9051,3.9049,3.9128,3.9137,3.9145,3.9228,3.917,3.9175,3.9178,3.9364,3.9366,3.9368,0,0,0,0,0,0,3.8872,3.8886,3.9011,3.8955,3.897,3.9001,3.9035,3.9039,3.906,3.9093,3.9098,3.9068,3.9127,3.9138,3.92,3.9231,3.9177,3.9182,3.9361,3.9364,3.9367,3.9393,0,0,0,0,0,0,3.8867,3.8885,3.8912,3.8955,3.8973,3.9065,3.9037,3.9042,3.9069,3.9067,3.911,3.9115,3.9126,3.9192,3.9205,3.9236,3.9186,3.9359,3.9363,3.9366,3.939,3.9397,3.9403,0,0,0,0,0,3.8861,3.8916,3.8914,3.8929,3.9008,3.9067,3.9077,3.909,3.9072,3.9099,3.912,3.9114,3.9225,3.9199,3.9212,3.9246,3.9357,3.9361,3.9366,3.9387,3.9396,3.9403,0,0,0,0,0,0,3.8874,3.8921,3.892,3.8991,3.9025,3.9066,3.9101,3.9099,3.9139,3.9135,3.9148,3.9158,3.9219,3.9239,3.9208,3.9314,3.9288,3.9296,3.9299,3.9308,3.9314,3.9308,3.919,0,0,0,0,0,3.8885,3.8931,3.8969,3.9028,3.9045,3.907,3.9096,3.9103,3.9139,3.9153,3.9178,3.9212,3.9254,3.9282,3.9323,3.9393,3.9401,3.9423,3.9429,3.9434,3.9441,3.9478,3.9488,3.9384,3.9384,3.9384,0,0,3.8909,3.894,3.8968,3.9031,3.9059,3.9104,3.9082,3.9131,3.9164,3.916,3.922,3.924,3.9278,3.9344,3.9374,3.9362,3.9472,3.944,3.9444,3.9448,3.9484,3.9494,3.9503,3.9387,3.9386,3.9386,0,0,3.8975,3.9004,3.9056,3.9084,3.9126,3.9142,3.9155,3.9196,3.9209,3.927,3.9268,3.9306,3.938,3.9407,3.9431,3.9506,3.9502,3.9519,3.9554,3.959,3.9598,3.9606,3.9632,3.9642,3.9526,3.9526,3.9526,0,3.8999,3.9068,3.9082,3.9132,3.9159,3.9158,3.921,3.9236,3.9289,3.9308,3.9294,3.9385,3.9411,3.9483,3.9501,3.9521,3.9534,3.9515,3.9596,3.9604,3.9611,3.9636,3.9647,3.9527,3.9527,3.9527,3.9527,0,3.9095,3.9143,3.918,3.9232,3.9264,3.9314,3.9334,3.9364,3.9368,3.9385,3.9446,3.9477,3.9524,3.9542,3.9546,3.9614,3.9605,3.9594,3.9568,3.9622,3.9647,3.9657,3.953,3.9529,3.9529,3.9528,0,0,3.9173,3.9232,3.9246,3.9269,3.9316,3.9352,3.9402,3.9449,3.9474,3.951,3.9552,3.9613,3.9603,3.963,3.9636,3.9668,3.9726,3.9653,3.9654,3.9665,3.9803,3.9811,3.9822,3.9723,3.9725,3.9727,3.9799,0,3.9244,3.9334,3.9347,3.9426,3.947,3.9469,3.9512,3.9544,3.9561,3.96,3.9618,3.9662,3.9645,3.9661,3.9692,3.9713,3.9754,3.9707,3.9761,3.9763,3.9752,3.9835,3.9844,3.9911,3.9809,3.981,3.9812,0,3.9339,3.9379,3.9462,3.9502,3.9521,3.956,3.9604,3.9641,3.9677,3.9687,3.9717,3.972,3.977,3.9742,3.981,3.9778,3.9801,3.9814,3.9817,3.9822,3.9791,3.9843,3.9933,3.9943,3.9827,3.9826,3.9824,0,3.9387,3.9462,3.9521,3.9541,3.9589,3.9616,3.9637,3.9672,3.9699,3.9737,3.9755,3.9797,3.9821,3.9853,3.9867,3.9845,3.9934,3.9907,3.9943,3.9943,3.9962,3.9961,4.0057,3.9976,3.9976,3.9976,3.9976,0,3.9466,3.9516,3.9544,3.958,3.9637,3.9651,3.9706,3.9726,3.9756,3.9795,3.9797,3.9833,3.9849,3.9888,3.9899,3.9953,3.9964,3.9972,3.9975,3.9973,3.9972,3.9988,3.9983,3.9979,3.9978,3.9978,3.9977,0,3.9529,3.955,3.9615,3.9655,3.9666,3.9706,3.9739,3.9774,3.979,3.984,3.9852,3.9878,3.9923,3.994,3.9995,4.0002,4.0066,4.0064,4.0054,4.0055,4.0089,4.0086,4.02,4.0215,4.0124,4.0125,4.0126,0,3.9578,3.9618,3.9662,3.9689,3.9711,3.9755,3.9783,3.9798,3.9826,3.987,3.9899,3.9945,3.9982,4.0054,4.0077,4.0119,4.0118,4.0155,4.0124,4.0121,4.0118,4.0116,4.012,4.0161,4.0162,4.0162,4.0163,0,3.9663,3.9671,3.9712,3.9757,3.979,3.9826,3.986,3.9881,3.9901,3.9933,3.9981,4.0009,4.0066,4.0111,4.0154,4.0174,4.0171,4.0173,4.0183,4.0181,4.0174,4.0178,4.007,4.017,4.0169,4.0169,4.0168,4.0168,3.9721,3.9756,3.9792,3.9838,3.9865,3.9897,3.9932,3.9952,3.9992,4.0041,4.0046,4.0097,4.013,4.0188,4.021,4.0248,4.0238,4.0253,4.0257,4.0261,4.0263,4.0168,4.0256,4.0256,4.0256,4.0255,4.0255,0,3.9805,3.9829,3.9871,3.9919,3.9954,3.995,3.9988,4.0017,4.0062,4.0094,4.0131,4.0184,4.0228,4.0253,4.0296,4.0322,4.0322,4.0333,4.0331,4.0336,4.027,4.0256,4.0332,4.0332,4.0332,4.0332,4.0332,4.0332,3.9854,3.9912,3.9924,3.9996,4.0018,4.0069,4.009,4.0119,4.0145,4.0205,4.0242,4.0258,4.0287,4.0333,4.0372,4.0378,4.0393,4.0405,4.0411,4.0348,4.034,4.0333,4.0321,4.0409,4.0409,4.0473,4.0474,4.0474]}]]